AirNav   Air Wisconsin Up To $57,000 Bonus
 
 1718 users online  

2MO3 Independence Regional Health Center Heliport
Independence, Missouri, USA

GOING TO INDEPENDENCE?


FAA INFORMATION EFFECTIVE 08 SEPTEMBER 2022

Location

FAA Identifier: 2MO3
Lat/Long: 39-05-38.9100N 094-26-06.4500W
39-05.648500N 094-26.107500W
39.0941417,-94.4351250
(estimated)
Elevation: 952 ft. / 290 m (estimated)
Variation: 05E (1990)
Time zone: UTC -5 (UTC -6 during Standard Time)
Zip code: 64050

Heliport Operations

Heliport use: Private use, MEDICAL USE.
Activation date: 03/1993
Control tower: no
ARTCC: KANSAS CITY CENTER
FSS: COLUMBIA FLIGHT SERVICE STATION
Attendance: CONTINUOUS
Wind indicator: yes
Segmented circle: no

Heliport Communications

WX ASOS at MKC (8 nm W): 120.75 (816-329-2843)
WX ASOS at LXT (9 nm S): 124.175 (816-347-9807)
WX AWOS-3T at GPH (15 nm N): 120.275 (816-407-3399)
WX ASOS at MCI (18 nm NW): PHONE 816-329-2808

Nearby radio navigation aids

VOR radial/distance  VOR name  Freq  Var
ANXr263/14.3NAPOLEON VORTAC114.0007E
MCIr124/18.1KANSAS CITY VORTAC113.2505E

Heliport Services

Runway Information

Helipad H1

Dimensions: 30 x 30 ft. / 9 x 9 m
Surface: asphalt
Latitude: 39-05.648500N
Longitude: 094-26.107500W
Elevation: 952.0 ft.
Traffic pattern: leftleft

Heliport Ownership and Management from official FAA records

Ownership: Privately-owned
Owner: INDEPENDENCE REGIONAL HEALTH
1509 W. TRUMAN ROAD
INDEPENDENCE, MO 64050
Phone 816-836-8100
Manager: EDDIE JORGENSON
1509 W. TRUMAN ROAD
INDEPENDENCE, MO 64050
Phone 816-836-8100

Additional Remarks

OWNER DESIRES HELIPORT NOT BE CHARTED.
FOR CD CTC KANSAS CITY APCH AT 816-329-2710.

Instrument Procedures

There are no published instrument procedures at 2MO3.

Some nearby airports with instrument procedures:

KMKC - Charles B Wheeler Downtown Airport (8 nm W)
KLXT - Lee's Summit Municipal Airport (9 nm S)
3GV - East Kansas City Airport (11 nm SE)
KGPH - Midwest National Air Center Airport (15 nm N)
KMCI - Kansas City International Airport (18 nm NW)
3EX - Excelsior Springs Memorial Airport (18 nm NE)
 
Loc | Ops | Rwys | IFR | FBO | Links
Com | Nav | Svcs | Stats | Notes
Area around 2MO3 (Independence Regional Health Center Heliport)
 
Road maps at: MapQuest Bing Google
 
Aerial photo
No photo
 
Sectional chart

 
Airport distance calculator
Flying to Independence Regional Health Center Heliport? Find the distance to fly.

From to 2MO3

Sunrise and sunset
Times for 04-Oct-2022
 Local
(UTC-5)
 Zulu
(UTC)
Morning civil twilight06:5111:51
Sunrise07:1812:18
Sunset18:5523:55
Evening civil twilight19:2200:22

Current date and time
Zulu (UTC)  04-Oct-2022 17:42:18
Local (UTC-5)  04-Oct-2022 12:42:18
 
METAR
KMKC 
8nm W 
041654Z 18007KT 10SM CLR 24/09 A3016 RMK AO2 SLP207 T02440094
KLXT 
8nm SE 
041653Z AUTO 19007KT 10SM CLR 24/08 A3018 RMK AO2 SLP211 T02390083
KGPH 
15nm N 
041715Z AUTO 12004KT 10SM CLR 23/06 A3017 RMK AO2
KGVW 
17nm S 
041710Z AUTO 07007KT 10SM CLR 24/19 A3009 RMK A01
KMCI 
19nm NW 
041653Z 17008KT 9SM SCT160 BKN250 26/09 A3016 RMK AO2 SLP205 T02560094 $
TAF
KMKC 
8nm W 
041120Z 0412/0512 16008KT P6SM FEW250
KMCI 
19nm NW 
041120Z 0412/0512 16008KT P6SM FEW250
NOTAMs
Click for the latest NOTAMs
NOTAMs are issued by the DoD/FAA and will open in a separate window not controlled by AirNav.

 

 
 

Would you like to see your business listed on this page?

 If your business provides an interesting product or service to pilots, flight crews, aircraft, or users of the Independence Regional Health Center Heliport, you should consider listing it here.  To start the listing process, click on the button below
 
Add a business
 

Other Pages about Independence Regional Health Center Heliport

Update a link
 
Copyright © AirNav, LLC. All rights reserved. Privacy Policy  Contact